User: anonymous   Login
Location: Unspecified
(0.0000°N, 0.0000°E)
Time: 17:19:34
(UTC+00:00)
Language:

NNS O-23 - Orbit

View from above orbital plane
View from above orbital plane
View from above satellite
View from above satellite

Ground track
Ground track

The orbit data is extracted from the following two-line orbital elements,

1 19070U 88033A   21026.61030124  .00000061  00000-0  10292-3 0  9991
2 19070  90.3564 319.9286 0192020  92.5808  80.2473 13.27479211586471
Epoch (UTC): 26 January 2021 14:38:50
Eccentricity: 0.0192020
inclination: 90.3564°
perigee height: 1011 km
apogee height: 1301 km
right ascension of ascending node: 319.9286°
argument of perigee: 92.5808°
revolutions per day: 13.27479211
mean anomaly at epoch: 80.2473°
orbit number at epoch: 58647

The dashed part of the orbit path shows where the satellite is in the earth's shadow,  

DLR